www.pogodaiklimat.ru

Погода и климат >> Архив погоды >> Таиланд >> Suphan Buri


ПОГОДА в Suphan Buri

  • Прогноз погоды в Suphan Buri
  • Монитор погоды в Suphan Buri
  • Климат города

АРХИВ ПОГОДЫ в Suphan Buri

Время (UTC), дата Ветер
(напр.,м/с)
 
Видим.   Явления Облачность Т
(С)
Тd
(С)
f
(%)
Тe
(С)
Тes
(С)
Комфортность P
(гПа)
Po
(гПа)
Тmin
(С)
Tmax
(С)
R
(мм)
R24
(мм)
S
(см)
03 14.10 СЗ 2 8000 м дымка 10/4 600 м
[Cu Sc Ac lent Cs]
+29.2 +25.5 80 +43 +46 опасность
перегрева
1008.9 1007.9
06 14.10 штиль 0 10 км 10/5 600 м
[Cu med, cong Ac As Cs]
+31.5 +25.9 72 +47 +53 опасность
перегрева
1006.6 1005.6
09 14.10 штиль 0 10 км 10/5 600 м
[Cu med, cong Ac As Cs]
+32.1 +25.2 67 +46 +48 опасность
перегрева
1004.1 1003.1
12 14.10 штиль 0 10 км пыльная буря 10/4 600 м
[Cb cap Ac As Cs]
+30.4 +26.1 78 +46 +46 опасность
перегрева
1005.6 1004.6 +33.5
15 14.10 штиль 0 7000 м гроза, ливневой дождь 10/4 600 м
[Cb cap Ac As Cs]
+27.8 +26.0 90 +42 +42 опасность
перегрева
1007.3 1006.3 0.6
18 14.10 штиль 0 10 км {гроза} 10/5 600 м
[Sc As op Cs]
+27.0 +25.0 89 +39 +39 очень
душно
1006.5 1005.4 0.0
21 14.10 штиль 0 7000 м дымка 8/4 600 м
[Sc As op Cs]
+26.5 +24.9 91 +38 +38 очень
душно
1005.0 1004.0
00 15.10 штиль 0 8000 м дымка 8/0
[Cs]
+26.7 +25.4 93 +39 +39 очень
душно
1007.1 1006.1 +26.0
03 15.10 Ю 2 10 км 8/3 600 м
[Cu hum Cs]
+31.2 +25.9 73 +46 +53 опасность
перегрева
1008.7 1007.7
06 15.10 штиль 0 12 км 5/3 600 м
[Cu hum Cs]
+33.0 +25.7 66 +48 +64 опасность
перегрева
1006.4 1005.4
09 15.10 Ю 2 12 км 8/4 600 м
[Cu med, cong Cs]
+33.9 +24.5 58 +47 +49 опасность
перегрева
1004.4 1003.5
12 15.10 Ю 1 8000 м зарница 8/3 600 м
[Cb cap Ac und Cs]
+29.0 +25.6 82 +43 +43 опасность
перегрева
1006.1 1005.1 +34.6
15 15.10 ЮЗ 5 8000 м дымка 8/4 600 м
[Sc Ac und Cs]
+28.9 +24.1 75 +40 +40 очень
душно
1008.0 1007.0
18 15.10 Ю 1 7000 м дымка 8/4 600 м
[Sc Ac trans Cs]
+28.1 +23.9 78 +39 +39 очень
душно
1007.3 1006.3
21 15.10 Ю 2 7000 м дымка 8/3 600 м
[Sc Ac trans Cs]
+27.5 +24.3 83 +39 +39 очень
душно
1006.1 1005.1
00 16.10 ЮЗ 2 7000 м дымка 8/3 600 м
[Sc Ac trans Cs]
+27.0 +24.1 84 +37 +38 очень
душно
1007.5 1006.5 +26.5
03 16.10 Ю 3 10 км 8/3 600 м
[Sc Ac lent Cs]
+31.0 +24.4 68 +43 +48 опасность
перегрева
1008.4 1007.4
06 16.10 Ю 1 12 км 9/5 600 м
[Cu med, cong Ac As Cs]
+32.4 +24.1 62 +45 +51 опасность
перегрева
1006.4 1005.4
09 16.10 штиль 0 10 км 9/4 600 м
[Cb cap Ac trans Cs]
+32.5 +24.9 64 +46 +48 опасность
перегрева
1004.5 1003.5
12 16.10 ЮЗ 3 10 км 10/6 600 м
[Cu med, cong Ac As Cs]
+30.0 +23.0 66 +40 +40 очень
душно
1006.0 1005.0 +33.5
15 16.10 ЮЗ 4 10 км 8/4 600 м
[Cu med, cong Ac lent Cs]
+28.5 +24.9 81 +41 +41 опасность
перегрева
1008.3 1007.3
18 16.10 С 1 10 км 8/3 600 м
[Sc Ac lent Cs]
+27.5 +23.1 77 +37 +37 очень
душно
1007.3 1006.3
21 16.10 ЮЗ 2 10 км 8/3 600 м
[Sc Ac lent Cs]
+26.8 +23.3 81 +36 +36 очень
душно
1006.2 1005.2
00 17.10 штиль 0 10 км 8/3 600 м
[Sc Ac lent Cs]
+26.6 +23.8 85 +37 +37 очень
душно
1008.0 1007.0 +26.0
03 17.10 штиль 0 10 км 10/4 600 м
[Sc As op Cs]
+28.8 +24.0 75 +40 +45 очень
душно
1010.3 1009.3
06 17.10 штиль 0 12 км 8/3 600 м
[Cu med, cong Ac trans Cs]
+32.2 +24.2 63 +44 +55 опасность
перегрева
1007.4 1006.4
09 17.10 штиль 0 12 км 8/3 600 м
[Cu med, cong Ac trans Cs]
+32.5 +24.1 61 +44 +48 опасность
перегрева
1005.4 1004.4
12 17.10 ЮЗ 1 10 км 8/3 600 м
[Cb cap Ac lent Cs]
+27.0 +24.5 86 +38 +38 очень
душно
1007.9 1006.9 +33.2
15 17.10 штиль 0 10 км 10/4 600 м
[Sc Ac und Cs]
+27.0 +25.4 91 +39 +39 очень
душно
1010.3 1009.3
18 17.10 штиль 0 10 км 8/3 600 м
[Sc Ac trans Cs]
+26.0 +25.3 96 +38 +38 очень
душно
1009.3 1008.3
21 17.10 штиль 0 10 км 8/3 600 м
[Sc Ac trans Cs]
+25.6 +24.9 96 +36 +36 очень
душно
1009.1 1008.1
00 18.10 штиль 0 10 км 8/3 600 м
[Sc Ac trans Cs]
+25.7 +24.7 94 +36 +36 очень
душно
1010.7 1009.7 +24.9
03 18.10 штиль 0 10 км 9/5 600 м
[Cu Sc Ac lent Cs]
+28.7 +24.8 79 +41 +46 опасность
перегрева
1012.8 1011.8
06 18.10 В 1 12 км 8/3 600 м
[Cu med, cong Ac lent Cs]
+30.7 +24.7 70 +43 +52 опасность
перегрева
1010.1 1009.1
09 18.10 штиль 0 6000 м гроза, ливневой дождь 10/6 600 м
[Cb cap Ac As Cs]
+25.7 +23.9 90 +35 +37 очень
душно
1009.4 1008.4 3
12 18.10 штиль 0 10 км слабый дождь {гроза} 10/4 600 м
[Sc Ac und Cs]
+25.0 +24.3 96 +35 +35 очень
душно
1010.3 1009.3 +32.1 19
15 18.10 штиль 0 10 км {дождь} 3/0
[Cs]
+24.8 +24.4 98 +35 +35 очень
душно
1012.1 1011.1 0.1
18 18.10 штиль 0 10 км {дождь} 3/0
[Cs]
+24.5 +23.8 96 +33 +33 очень
душно
1011.5 1010.5
21 18.10 штиль 0 10 км 8/3 600 м
[Sc Ac trans Cs]
+24.5 +23.8 96 +33 +33 очень
душно
1009.9 1008.9
00 19.10 С 1 10 км 5/1 600 м
[Sc Ac trans Cs]
+24.5 +23.8 96 +33 +34 очень
душно
1011.8 1010.7 +23.7
03 19.10 штиль 0 12 км 5/3 600 м
[Cu hum Cs]
+29.2 +24.8 77 +42 +52 опасность
перегрева
1013.2 1012.2
06 19.10 штиль 0 12 км 8/5 600 м
[Cu med, cong Ac lent Cs]
+31.1 +24.5 68 +44 +52 опасность
перегрева
1011.2 1010.2
09 19.10 ЮВ 1 12 км 5/3 600 м
[Cu med, cong Ac lent Cs]
+32.5 +25.6 67 +47 +51 опасность
перегрева
1008.4 1007.4
12 19.10 штиль 0 10 км 5/3 600 м
[Sc Ac lent Cs]
+30.5 +25.7 76 +45 +45 опасность
перегрева
1009.8 1008.8 +33.5
15 19.10 штиль 0 10 км 6/3 600 м
[Sc Ac trans Cs]
+28.7 +25.4 82 +42 +42 опасность
перегрева
1012.8 1011.8
18 19.10 штиль 0 10 км пыльная буря 8/3 600 м
[Sc Ac trans Cs]
+27.6 +25.5 88 +40 +40 очень
душно
1012.4 1011.4
21 19.10 штиль 0 10 км 8/3 600 м
[Sc Ac trans Cs]
+26.9 +25.0 89 +39 +39 очень
душно
1011.3 1010.3
00 20.10 штиль 0 10 км 8/3 600 м
[Sc Ac trans Cs]
+26.7 +25.3 92 +39 +39 очень
душно
1012.3 1011.3 +25.9
03 20.10 штиль 0 12 км 3/0
[Cs]
+31.2 +24.5 68 +44 +59 опасность
перегрева
1013.5 1012.5
06 20.10 СЗ 1 12 км 5/3 600 м
[Cu med, cong Cs]
+33.7 +25.7 63 +49 +62 опасность
перегрева
1010.7 1009.7
09 20.10 штиль 0 12 км 5/3 600 м
[Cu med, cong Ac lent Cs]
+33.5 +26.0 65 +49 +54 опасность
перегрева
1009.0 1008.0
12 20.10 штиль 0 10 км 3/0
[Cs]
+30.5 +26.3 78 +46 +46 опасность
перегрева
1009.7 1008.7 +34.1
15 20.10 штиль 0 10 км 3/0
[Cs]
+29.5 +26.0 81 +44 +44 опасность
перегрева
1011.8 1010.8
18 20.10 штиль 0 8000 м дымка 3/0
[Cs]
+28.5 +27.2 93 +45 +45 опасность
перегрева
1011.2 1010.2
21 20.10 штиль 0 8000 м дымка 3/0
[Cs]
+27.5 +26.8 96 +43 +43 опасность
перегрева
1010.1 1009.1
00 21.10 штиль 0 10 км 3/3 600 м
[Cu hum]
+28.0 +25.1 84 +40 +41 очень
душно
1011.3 1010.3 +26.9

 

Местоположение метеостанции Suphan Buri (Таиланд): широта 14.47 долгота 100.13 высота над уровнем моря 8 м.

В архиве по умолчанию представлена погода в Suphan Buri за последнюю неделю. Архивные данные за месяц целиком и за предыдущие месяцы, начиная с января 2011 года, Вы можете получить, выбрав интересующий диапазон дат из раскрывающегося списка и нажав кнопку "Ввод!".

Внимание! Время в таблицах - всемирное. Для получения местного времени необходимо прибавить поправку, которая в Suphan Buri равна 7 ч.

Смотрите также архив погоды в соседних городах и на ближайших метеорологических станциях:

Погода в U Thong Agromet (Таиланд) (34 км)
Погода в Nakhonpathom (Таиланд) (53 км)
Погода в Lop Buri (Таиланд) (63 км)
Погода в Ayutthaya (Таиланд) (64 км)
Погода в Pathumthani (Таиланд) (67 км)
Погода в Chainat Agromet (Таиланд) (76 км)
Погода в Don Muang (Таиланд) (79 км)
Погода в Kanchanaburi (Таиланд) (82 км)
Погода в Saraburi (Таиланд) (85 км)
Погода в Bangkok (Таиланд) (94 км)

Пояснения к столбцам:

Ветер - указаны скорость ветра в м/с - средняя за 10 мин, порывы в срок и между сроками (в фигурных скобках) и направление, откуда дует ветер: С - северный, СВ - северо-восточный, В - восточный, ЮВ - юго-восточный, Ю - южный, ЮЗ - юго-западный, З - западный, СЗ - северо-западный.
Видимость - горизонтальная дальность видимости в метрах или километрах. При видимости от 1 до 10 км при отсутствии осадков обычно наблюдается дымка, при ухудшении видимости до 1 км и менее - туман. В сухую погоду видимость может ухудшаться дымом, пылью или мглою.
Явления - указаны атмосферные явления, наблюдавшиеся в срок или в последний час перед сроком; фигурными скобками обозначены явления, наблюдавшиеся между сроками (за 1-3 часа до срока); квадратными скобками обозначены град или гололедные отложения с указанием их диаметра в мм.
Облачность - указаны через наклонную черту общая и нижняя облачность в баллах и высота нижней границы облаков в метрах; квадратными скобками обозначены формы облаков: Ci - перистые, Cs - перисто-слоистые, Cc - перисто-кучевые, Ac - высококучевые, As - высокослоистые, Sc - слоисто-кучевые, Ns - слоисто-дождевые, Cu - кучевые, Cb - кучево-дождевые. Подробнее классификацию облаков см. в Атласе облаков (PDF).
T - Температура воздуха - температура, измеренная на высоте 2 м над землей.
Td - Температура точки росы - температура, при понижении до которой содержащийся в воздухе водяной пар достигнет насыщения.
f - Относительная влажность воздуха - влажноcть воздуха, измеренная на высоте 2 м над землей.
Te - Эффективная температура - температура, которую ощущает одетый по сезону человек в тени. Характеристика душности погоды. При расчете учитывается влияние влажности воздуха и скорости ветра на теплоощущения человека.
Tes - Эффективная температура на солнце - температура, которую ощущает человек, с поправкой на солнечный нагрев. Характеристика знойности погоды. Зависит от высоты солнца над горизонтом, облачности и скорости ветра. Ночью, в пасмурную погоду, а также при ветре 12 м/с и более поправка равна нулю.
P - Атмосферное давление - приведенное к уровню моря атмосферное давление.
Po - Атмосферное давление - измеренное на уровне метеостанции атмосферное давление.
Tmin - Минимальная температура - минимум температуры воздуха на высоте 2 м над землей.
Tmax - Максимальная температура - максимум температуры воздуха на высоте 2 м над землей.
R - Количество осадков - Количество выпавших осадков за период времени, мм. При наведении курсора мыши на число - период времени, за который выпало указанное количество осадков.
R24 - Количество осадков - Количество выпавших осадков за 24 часа, мм.
S - Снежный покров - Высота снежного покрова, см. При наведении курсора мыши на число - состояние снежного покрова и степень покрытия местности в баллах.